Location: Aalen
(48.8330°N, 10.1000°E)
Time: 11:45:53
(UTC+02:00)

S-56A Canister/Altair - Pass Details

Date: 01 August 2021
Orbit: 632 x 2500 km, 38.9° (Epoch: 21 September)

Event Time Altitude Azimuth Distance (km) Brightness Sun altitude
Rises 23:23:20 0° 280° (W) 6,121 12.7 -18.0°
Reaches altitude 10° 23:30:22 10° 259° (W) 4,896 11.8 -18.6°
Maximum altitude 23:36:02 14° 234° (SW) 4,308 11.2 -19.0°
Drops below altitude 10° 23:41:09 10° 208° (SSW) 4,302 11.0 -19.4°
Enters shadow 23:42:50 - 201° (SSW) 4,424 11.0 -19.5°
Sets 23:46:34 0° 185° (S) 4,888 - -19.8°
